Find Starlink 5372

NORAD ID: 54838 Int'l Des: 2022-177 Owner: SPXS Country: US Constellation: starlink operational
LEOCIRCULAR

リアルタイム位置

3D地球を読み込み中...

Starlink 5372について

説明を読み込み中...

次回通過

Passes for default location (London). Set your location on the main map for personalized predictions.

高度履歴

Loading altitude history...

軌道要素

1 54838U 22177U 26123.17376024 .00000617 00000-0 32685-4 0 9993
2 54838 43.0024 185.1541 0001462 269.9712 90.0971 15.26740288185291
Epoch: May 3, 2026 • Age: 5 hours

現在のステータス

高度 487.5 km
速度 7.63 km/s
衛星直下点 33.39°N, 129.35°W
打ち上げ日 Dec 28, 2022
運用期間 3.3 years
タイプ internet

技術仕様

分類 Payload
質量 305.00 kg
乾燥質量 290.00 kg
総質量 305.00 kg
長さ 0.20 m
直径 2.80 m
スパン 9.00 m
形状 Box + pan
製造者 SPXS
バスタイプ Starlink
フェーズステータス In Orbit
所有者/国 SPXS/US

Most Searched